Regional Weather Roundup
Issued by NWS Grand Forks, ND

Home | Current Version | Previous Version | Graphics & Text | Print | Product List | Glossary On
Versions: 1 2 3 4 5 6 7 8 9 10 11 12 13 14 15 16 17 18 19 20 21 22 23 24 25 26 27 28 29 30 31 32 33 34 35 36 37 38 39 40 41 42 43 44 45 46 47 48 49 50
000
ASUS43 KFGF 181831
RWRFGF
PRAIRIE TO PINES  WEATHER ROUNDUP
NATIONAL WEATHER SERVICE EASTERN NORTH DAKOTA/GRAND FORKS ND
100 PM CDT FRI AUG 18 2017

 **SATELLITE DATA USED TO AUGMENT SKY COVER AT AUTOMATED STATIONS**
 *****  WEATHER ACROSS EASTERN NORTH DAKOTA  *****

CITY           SKY/WX    TMP DP  RH WIND       PRES   REMARKS
GRAND FORKS    PTSUNNY   80  58  46 NW8       29.85R
6HR MIN TEMP:  57; 6HR MAX TEMP:  80;

GRAND FRKS AFB FAIR      76  60  55 NW8       29.87R
DEVILS LAKE    FAIR      74  58  57 NW15      29.90F
6HR MIN TEMP:  62; 6HR MAX TEMP:  75;

FARGO          FAIR      76  61  59 SW7       29.87F
WAHPETON ARPT  FAIR      64  59  82 W9        29.90F
$$

 ***** WEATHER ACROSS CENTRAL AND WESTERN NORTH DAKOTA  *****

CITY           SKY/WX    TMP DP  RH WIND       PRES   REMARKS
BISMARCK       FAIR      76  56  49 W7        29.97R
6HR MIN TEMP:  58; 6HR MAX TEMP:  76;

MINOT          FAIR      79  50  36 W14G20    29.92F
6HR MIN TEMP:  58; 6HR MAX TEMP:  79;

JAMESTOWN      CLOUDY    67  59  75 NW8       29.92R
6HR MIN TEMP:  60; 6HR MAX TEMP:  70;

MINOT AFB      FAIR      79  46  31 NW16      29.91S
GARRISON         N/A     77  52  41 NW8G18    29.95S
WILLISTON      FAIR      79  52  38 VRB3      29.96F
6HR MIN TEMP:  56; 6HR MAX TEMP:  79;

DICKINSON      FAIR      79  50  36 NW5       29.99F
6HR MIN TEMP:  55; 6HR MAX TEMP:  79; 6HR PCP: TRACE;

HETTINGER      FAIR      79  48  33 N7        30.02F
6HR MIN TEMP:  53; 6HR MAX TEMP:  79;

$$

 *****  OTHER AIRPORT OBSERVATIONS IN OUR AREA  *****

CITY           SKY/WX    TMP DP  RH WIND       PRES   REMARKS
WALHALLA         N/A     77  77 100 NW9G16    29.84S
GRAFTON AIRPOR FAIR      75  61  60 W6        29.86F
VALLEY CITY AR LGT RAIN  68  68 100 NW6       29.94R
CANDO          FAIR      79  54  41 NW8       29.91F
CAVALIER APRT  FAIR      77  57  50 NW13      29.84S
GWINNER        MOCLDY    64  61  88 CALM      29.91F
SHEYENNE NWR     N/A     61  61 100 SW5       29.95S
ROLLA          FAIR      77  52  41 NW9G16    29.91F
 ***** THE ABOVE OBSERVATIONS ARE NON NWS ARE NOT QUALITY
       CONTROLLED AND MAY MIS-REPORT RAIN FOR SNOW...
$$

  *****  WEATHER ACROSS NORTHERN MINNESOTA  *****

CITY           SKY/WX    TMP DP  RH WIND       PRES   REMARKS
FLAG ISLAND    FAIR      77  54  44 W6        29.80S
WARROAD        FAIR      75  63  64 W9        29.83S
ROSEAU         FAIR      79  57  47 NW7       29.83S
HALLOCK        FAIR      77  59  53 CALM      29.83F
THF RVR FALLS  FAIR      78  56  46 NW9       29.85F
6HR MIN TEMP:  55; 6HR MAX TEMP:  78;

BAUDETTE       FAIR      77  57  50 VRB3      29.81F
6HR MIN TEMP:  51; 6HR MAX TEMP:  78;

WASKISH        FAIR      75  63  64 SW9       29.84S
CROOKSTON      FAIR      79  54  41 N10       29.85S
STEPHEN NDAWN    N/A     73  57  56 W7          N/A
GREENBUSH NDAW   N/A     75  57  53 W5          N/A
$$
  *****  WEATHER ACROSS CENTRAL AND WEST MINNESOTA  *****

CITY           SKY/WX    TMP DP  RH WIND       PRES   REMARKS
FOSSTON        FAIR      81  54  39 NW7       29.86S
BEMIDJI        FAIR      77  56  48 N7        29.86F
PARK RAPIDS    PTSUNNY   78  59  51 W8        29.86F
6HR MIN TEMP:  57; 6HR MAX TEMP:  79;

ELBOW LAKE     LGT RAIN  61  60  96 NE5       29.91F
WADENA         LGT RAIN  64  61  88 SE5       29.90R
DETROIT LAKES  FAIR      72  61  68 SW5       29.90F
MOORHEAD       FAIR      73  63  68 SW8       29.88F
FERGUS FALLS   CLOUDY    66  61  82 S3        29.90F
MORRIS MN      LGT RAIN  70  63  78 CALM      29.90F
STAPLES        FAIR      75  61  60 SW5       29.88F
$$
  *****  WEATHER ELSEWHERE ACROSS MINNESOTA  *****

CITY           SKY/WX    TMP DP  RH WIND       PRES   REMARKS
DULUTH         FAIR      69  61  75 VRB5      29.86F
6HR MIN TEMP:  55; 6HR MAX TEMP:  69;

INTRNTL FALLS  FAIR      76  58  53 NW6       29.82F
6HR MIN TEMP:  49; 6HR MAX TEMP:  77;

ELY            FAIR      68  57  68 S5        29.85S
CLOQUET        FAIR      70  59  68 W5        29.87S
WHEATON        FAIR      68  57  68 N5        29.91F
BRAINERD       FAIR      72  61  68 CALM      29.89S
6HR MIN TEMP:  55; 6HR MAX TEMP:  72;

HIBBING        FAIR      71  56  58 NW7       29.85F
6HR MIN TEMP:  49; 6HR MAX TEMP:  71;

ALEXANDRIA     FAIR      72  60  66 SW10      29.93S
6HR MIN TEMP:  61; 6HR MAX TEMP:  72;

SAINT CLOUD    FAIR      69  64  84 W7        29.90F
6HR MIN TEMP:  56; 6HR MAX TEMP:  69; 6HR PCP: TRACE;

MINNEAPOLIS    LGT RAIN  65  61  87 W7        29.92S
6HR MIN TEMP:  62; 6HR MAX TEMP:  67; 6HR PCP:  0.05;

$$

  *****  WEATHER ACROSS SOUTH DAKOTA  *****

CITY           SKY/WX    TMP DP  RH WIND       PRES   REMARKS
SIOUX FALLS    FAIR      77  64  64 S9        29.92F
6HR MIN TEMP:  60; 6HR MAX TEMP:  77;

BROOKINGS      FAIR      75  60  59 S12       29.91F
WATERTOWN      FAIR      76  61  59 S13       29.89F
6HR MIN TEMP:  61; 6HR MAX TEMP:  76; 6HR PCP:  0.01;

HURON          FAIR      77  65  66 W8        29.90F
6HR MIN TEMP:  60; 6HR MAX TEMP:  77;

SISSETON         N/A     67  62  84 NE7       29.88F
ABERDEEN       FAIR      73  61  65 NW17      29.89F
6HR MIN TEMP:  55; 6HR MAX TEMP:  73;

MITCHELL       FAIR      76  64  66 W8        29.92R
PIERRE         FAIR      79  53  40 NW13G21   29.96R
6HR MIN TEMP:  57; 6HR MAX TEMP:  79;

MOBRIDGE       FAIR      76  59  55 N13       29.94S
RAPID CITY     FAIR      82  46  28 N10       30.05F
6HR MIN TEMP:  58; 6HR MAX TEMP:  82;

$$

  *****  SOME WEATHER IN NEARBY STATES *****

CITY           SKY/WX    TMP DP  RH WIND       PRES   REMARKS
GLASGOW MT     FAIR      81  43  26 W3        29.94F
6HR MIN TEMP:  54; 6HR MAX TEMP:  81;

GREAT FALLS MT FAIR      81  32  17 SW14G22   30.01F
6HR MIN TEMP:  55; 6HR MAX TEMP:  81;

CHEYENNE WY    FAIR      77  40  26 S5        30.25F
6HR MIN TEMP:  49; 6HR MAX TEMP:  78;

SCOTTSBLUFF NE FAIR      81  47  30 W6        30.13F
6HR MIN TEMP:  52; 6HR MAX TEMP:  81;

OMAHA NE       FAIR      84  61  45 VRB7      29.92F
6HR MIN TEMP:  67; 6HR MAX TEMP:  84;

DES MOINES IA  FAIR      84  63  49 S9        29.89F
6HR MIN TEMP:  61; 6HR MAX TEMP:  84;

DAVENPORT IA   FAIR      77  62  59 SW9       29.93F
6HR MIN TEMP:  61; 6HR MAX TEMP:  78;

CHICAGO IL     PTSUNNY   78  60  53 W9G20     29.87F
6HR MIN TEMP:  67; 6HR MAX TEMP:  79;

EAU CLAIRE WI  FAIR      71  61  70 W9        29.87F
6HR MIN TEMP:  59; 6HR MAX TEMP:  71;

LA CROSSE WI   LGT RAIN  73  61  65 NW8       29.88F
6HR MIN TEMP:  66; 6HR MAX TEMP:  74; 6HR PCP: TRACE;

$$

  *****  SOME NATIONAL WEATHER *****

CITY           SKY/WX    TMP DP  RH WIND       PRES   REMARKS
LA GUARDIA NY  LGT RAIN  81  77  88 S13       29.83F
6HR MIN TEMP:  73; 6HR MAX TEMP:  82; 6HR PCP:  0.86;

RALEIGH NC     FAIR      95  76  53 W8        29.89F HX 108
6HR MIN TEMP:  78; 6HR MAX TEMP:  96;

ATLANTA GA     FAIR      86  69  56 NW13      30.00F HX  90
6HR MIN TEMP:  75; 6HR MAX TEMP:  87;

NEW ORLEANS LA FAIR      91  77  63 N7        30.04F HX 104
6HR MIN TEMP:  77; 6HR MAX TEMP:  92;

OKLAHOMA CITY  FAIR      88  64  44 S12       30.00R
6HR MIN TEMP:  70; 6HR MAX TEMP:  88;

ALBUQUERQUE NM FAIR      84  37  18 VRB5      30.25F
6HR MIN TEMP:  66; 6HR MAX TEMP:  84;

SALT LAKE CITY FAIR      86  40  19 NW8       30.15F
6HR MIN TEMP:  65; 6HR MAX TEMP:  86;

LOS ANGELES CA FAIR      72  63  73 W9        30.01F
6HR MIN TEMP:  66; 6HR MAX TEMP:  73;

BOISE ID       FAIR



USA.gov is the U.S. government's official web portal to all federal, state and local government web resources and services.